Location: Cassano d�Adda
(45.5333°N, 9.5167°E)
Time: 19:43:08
(UTC+00:00)

Cosmos 1992 Rocket - Pass Details

Date: 08 December 2019
Orbit: 758 x 766 km, 74.0° (Epoch: 21 January)

Event Time Altitude Azimuth Distance (km) Brightness Sun altitude
Rises 17:25:24 0° 335° (NNW) 3,234 7.4 -18.0°
Reaches altitude 10° 17:27:48 10° 333° (NNW) 2,305 6.6 -18.4°
Maximum altitude 17:32:57 63° 253° (WSW) 852 4.5 -19.3°
Drops below altitude 10° 17:38:05 10° 173° (S) 2,294 6.5 -20.1°
Sets 17:40:28 0° 170° (S) 3,217 7.3 -20.5°
